カタログに戻る

STARLINK-33746

運用中通信VLEO
NORAD 63446·PAYLOAD·🇺🇸 United States

打ち上げ Apr 4, 2025 から Vandenberg Space Force Base

Loading…

次のパス (今後24時間)

TLE

最新Source: CelesTrak SupGP

元期: Sep 14, 2026, 20:53 UTC

1 63446C 25069P   26257.87062500 -.00013416  00000+0 -39644-3 0  2577
2 63446  53.1585 336.0754 0001185  83.8489  41.9025 15.34393514    15

AllMySatでSTARLINK-33746をリアルタイム追跡

Download on the App Store